Temp
61 72 69 58 56 61 47 42 45 53 54 64 70 74 75 77 80 79 78 79 81 83 83 83 82 81 78 77 78 77 77 77
57 69 70 66 65 51 46 41 37 46 51 57 64 66 72 74 77 80 81 78 80 84 84 83 83 82 81 79 78 78 78 78
50 56 61 59 59 55 56 48 49 40 51 62 65 70 71 75 79 79 80 80 81 84 86 86 83 82 80 80 79 78 78 79
40 56 56 56 60 55 55 47 44 47 56 70 72 73 71 77 80 81 82 81 84 86 86 86 85 81 80 80 80 80 79 79
42 47 54 52 55 58 58 49 46 52 57 69 67 68 73 74 76 81 81 82 84 86 85 85 85 83 81 80 80 81 80 79
32 34 42 40 45 49 52 50 52 57 62 68 71 69 70 70 72 79 83 82 84 85 85 85 86 84 81 80 81 81 80 79
36 40 42 42 42 46 47 58 57 60 58 66 65 67 66 68 71 75 83 84 85 85 84 84 84 84 82 81 80 81 79 78
34 42 44 41 49 52 54 60 60 59 60 63 62 63 65 64 68 74 81 84 85 86 85 84 84 83 82 81 80 80 78 77
27 41 44 44 50 54 58 53 55 57 58 63 61 63 62 63 64 70 81 84 85 86 85 85 85 85 82 81 82 79 78 78
28 35 38 50 55 57 55 55 56 55 60 63 63 64 65 66 64 65 68 78 85 87 86 86 86 86 84 82 80 78 78 77
31 31 48 50 50 48 46 49 57 55 58 64 67 67 64 66 68 66 66 68 71 78 80 79 84 85 83 81 80 79 78 77
33 32 36 44 51 57 59 41 55 57 57 58 63 54 55 64 67 67 69 70 70 72 75 78 79 84 82 80 80 78 79 79
32 32 39 49 51 58 40 40 52 53 54 57 53 54 62 64 64 67 68 69 72 71 69 70 73 84 83 82 81 84 82 81
35 35 34 51 51 43 45 53 53 51 52 53 58 62 62 61 62 65 66 68 70 70 70 70 70 73 70 72 73 77 78 79
35 37 48 51 47 51 54 51 51 50 53 57 60 60 59 58 60 63 64 66 68 68 69 70 71 71 70 69 72 73 74 76
36 43 43 48 52 52 51 50 54 55 55 57 57 60 61 57 58 60 62 63 66 66 66 67 68 70 69 70 71 71 71 71
39 44 45 50 51 52 51 51 53 55 56 56 58 59 56 56 56 58 59 62 63 63 64 65 67 67 69 69 70 70 70 70
35 44 42 44 50 52 50 48 50 51 52 55 56 59 59 55 55 56 58 59 62 63 63 64 66 67 68 69 70 68 68 68
42 46 47 50 51 52 49 50 50 52 53 53 56 59 60 54 54 56 59 60 60 61 63 64 66 67 68 69 69 68 67 68
MSLP
1002.00 1000.34 1000.56 1000.99 1001.33 1002.73 1003.70 1004.38 1003.82 1002.05 1001.05 999.89 999.24 999.03 998.82 999.16 999.58 1000.71 1001.47 1002.04 1002.14 1003.00 1003.36 1004.41 1005.31 1006.01 1006.90 1008.18 1009.14 1010.10 1010.79 1011.63
1003.49 1001.30 1000.14 999.90 1001.24 1002.48 1002.97 1003.66 1003.17 1001.54 1000.30 998.83 998.90 998.82 998.72 998.72 998.69 999.31 1000.05 1000.89 1001.52 1001.91 1002.75 1003.37 1003.90 1004.86 1006.20 1007.16 1007.94 1008.80 1009.84 1010.71
1006.01 1002.19 1000.70 1000.75 1000.52 1001.09 1002.21 1002.69 1002.18 1001.34 998.87 997.45 997.61 997.59 997.86 997.81 997.34 997.80 998.48 999.16 999.86 1000.51 1001.27 1002.13 1003.34 1004.32 1005.19 1006.38 1007.28 1008.34 1009.21 1009.94
1007.42 1003.37 1003.02 1002.56 1000.95 1001.23 1001.30 1002.06 1001.82 1000.69 997.76 996.44 996.24 996.24 997.09 996.90 996.54 996.40 996.92 997.28 998.15 998.97 999.95 1001.18 1002.14 1003.67 1004.37 1005.47 1006.50 1007.35 1008.05 1008.93
1008.06 1005.46 1003.82 1003.67 1001.96 1001.15 1001.02 1001.12 1001.15 1000.56 996.47 996.48 996.18 995.92 995.78 996.33 996.37 995.82 995.94 996.14 996.78 997.82 999.06 999.99 1000.92 1002.34 1003.46 1004.53 1005.42 1006.36 1007.34 1008.22
1011.66 1010.26 1009.45 1006.87 1004.45 1003.29 1002.52 1000.86 1000.14 998.58 996.76 996.92 996.14 996.12 995.89 995.97 995.50 994.85 994.60 994.97 995.30 996.69 997.63 998.56 999.75 1001.09 1002.36 1003.54 1004.56 1005.52 1006.57 1007.58
1012.73 1011.20 1009.68 1007.84 1006.02 1003.68 1002.92 1000.38 999.10 998.48 997.46 996.44 996.40 996.49 996.36 995.92 994.98 993.57 993.12 993.41 994.18 995.32 996.50 997.64 999.05 1000.35 1001.72 1002.70 1003.66 1004.60 1005.76 1006.76
1012.08 1009.70 1008.09 1006.95 1005.08 1003.29 1001.78 1000.48 999.22 998.27 997.14 996.36 996.84 996.70 996.54 996.03 994.34 993.49 992.63 993.02 993.47 994.25 995.50 996.91 998.12 999.16 1000.52 1001.91 1002.79 1003.81 1004.85 1005.58
1011.78 1008.83 1007.24 1006.06 1004.44 1002.63 1000.65 1001.07 1000.10 999.12 997.92 997.19 997.30 997.34 997.61 996.68 995.91 994.36 993.25 992.98 993.37 993.90 994.93 996.04 997.17 998.32 999.57 1000.45 1001.87 1003.02 1004.10 1004.91
1012.01 1009.01 1006.57 1004.93 1003.98 1002.86 1001.95 1002.18 1001.47 1000.34 998.76 998.30 998.06 998.52 998.09 997.76 997.42 995.94 994.58 993.68 993.13 993.59 994.50 995.52 996.77 997.77 999.15 1000.38 1001.34 1002.50 1003.53 1004.36
1012.33 1009.41 1005.96 1004.54 1004.42 1004.67 1003.70 1003.71 1003.01 1002.09 1000.78 999.98 998.86 998.06 998.70 998.89 998.01 996.97 995.62 994.69 994.42 994.30 994.98 995.95 996.74 997.54 998.64 999.87 1000.68 1001.73 1002.54 1003.18
1012.42 1009.74 1006.88 1006.35 1004.72 1003.90 1003.21 1004.92 1004.72 1004.08 1002.91 1001.92 999.84 1000.87 1001.70 1000.42 999.28 997.83 996.47 995.87 995.48 995.43 995.62 996.28 997.02 997.58 998.68 999.63 1000.48 1001.01 1001.52 1001.97
1011.85 1010.12 1007.99 1006.83 1005.67 1003.97 1004.86 1008.13 1006.89 1006.08 1004.94 1003.89 1003.18 1003.70 1003.10 1001.87 1000.51 999.50 998.16 997.52 996.99 996.64 996.79 997.06 997.15 997.24 998.36 999.29 999.62 999.49 1000.70 1001.76
1011.27 1009.75 1008.88 1007.82 1006.02 1006.08 1008.32 1008.17 1008.01 1007.16 1006.42 1005.59 1004.81 1004.22 1003.65 1002.90 1001.98 1000.80 999.50 998.92 998.44 998.12 998.24 998.13 997.83 998.17 998.93 999.57 999.86 999.92 1000.46 1001.08
1012.16 1010.53 1009.19 1008.73 1008.42 1008.46 1008.53 1008.64 1008.50 1008.04 1007.26 1006.46 1005.68 1004.93 1004.46 1004.11 1003.34 1002.66 1001.32 1000.68 1000.10 999.63 999.48 999.23 999.12 999.39 999.79 1000.22 999.98 1000.03 1000.40 1000.62
1012.42 1010.73 1009.99 1009.16 1009.14 1008.98 1008.78 1009.14 1008.94 1008.54 1007.91 1007.12 1006.38 1005.58 1004.96 1004.81 1004.21 1003.81 1002.77 1001.96 1001.52 1000.91 1000.69 1000.53 1000.23 1000.04 1000.18 1000.36 1000.23 1000.33 1000.76 1000.85
1012.66 1011.49 1010.22 1009.10 1009.54 1009.53 1009.05 1008.86 1008.82 1008.16 1008.04 1007.58 1006.89 1006.11 1005.77 1005.46 1005.05 1004.72 1003.89 1002.72 1002.23 1001.84 1001.70 1001.45 1001.16 1000.89 1000.51 1000.38 1000.38 1000.57 1000.68 1000.85
1013.19 1012.60 1012.04 1010.52 1009.24 1009.67 1009.79 1009.47 1009.10 1009.04 1007.73 1007.32 1007.40 1006.74 1006.11 1005.81 1005.69 1005.20 1004.64 1003.63 1003.18 1002.64 1002.28 1001.98 1001.68 1001.44 1001.01 1000.68 1000.88 1001.10 1001.25 1001.20
1013.04 1011.97 1011.11 1010.42 1010.17 1009.73 1009.96 1009.76 1009.25 1008.92 1008.19 1007.58 1007.23 1007.01 1006.34 1006.38 1005.84 1005.25 1004.62 1003.77 1003.79 1003.46 1002.84 1002.52 1002.28 1001.82 1001.34 1001.00 1000.94 1001.18 1001.43 1001.24
Wind_Speed
18 14 18 8 21 12 5 4 2 4 5 6 7 13 17 21 21 20 19 19 20 22 23 22 23 24 24 23 22 21 22 18
13 11 11 16 9 8 4 10 6 5 5 7 12 12 14 19 21 21 22 20 17 20 21 20 23 22 22 22 24 22 22 18
9 8 25 9 11 4 6 5 13 2 9 9 10 15 19 20 23 22 24 24 23 23 23 22 18 20 22 21 22 20 19 18
12 17 16 10 11 8 11 13 1 3 16 5 11 13 14 17 19 19 23 25 25 25 24 23 20 20 21 20 20 20 19 18
10 1 7 5 6 7 5 5 10 14 17 6 4 4 6 10 17 16 20 24 23 22 21 22 22 19 20 20 20 20 18 18
7 9 13 12 24 18 10 9 8 14 18 14 15 10 7 7 11 18 23 25 24 21 22 22 21 20 19 19 19 19 18 17
11 20 21 22 24 25 13 13 14 10 12 12 9 6 7 10 11 17 26 26 23 22 21 21 20 18 17 18 18 19 18 17
15 21 17 19 18 19 20 19 6 4 13 3 3 3 11 12 9 11 18 22 24 24 23 22 22 21 19 18 19 19 19 19
9 8 13 6 7 11 4 17 4 10 4 4 6 12 13 15 12 6 18 22 23 23 22 21 22 21 21 21 17 18 17 16
9 8 6 11 11 8 21 21 18 11 8 4 13 8 14 16 13 10 8 8 19 19 19 20 18 18 13 15 16 16 15 15
5 5 2 5 10 12 5 17 19 18 18 7 3 7 15 18 17 13 9 6 4 5 8 9 15 15 14 15 15 15 16 17
3 6 3 4 20 22 12 11 20 19 18 17 8 10 6 18 17 16 16 11 9 6 7 11 9 13 13 13 13 15 16 18
9 5 2 8 22 14 9 1 14 14 15 14 13 3 7 13 14 14 12 16 11 11 9 5 5 15 17 15 18 18 10 10
3 4 4 12 7 9 3 3 10 12 15 10 7 9 9 11 14 16 17 16 15 13 11 8 8 9 8 7 1 5 8 11
2 3 2 10 2 7 8 6 11 12 13 16 12 8 7 8 11 13 13 12 12 11 10 10 11 8 11 3 5 4 4 8
7 6 11 13 6 9 12 12 13 10 12 13 15 13 8 7 9 10 9 11 9 10 10 8 7 8 7 5 5 7 6 3
5 6 16 7 10 12 14 14 15 16 12 12 12 14 6 6 8 8 9 9 8 8 7 7 6 6 5 6 7 6 5 4
4 10 8 15 16 13 10 15 14 14 17 13 10 11 7 6 6 6 8 6 9 9 7 7 7 5 4 6 7 6 5 3
6 13 10 14 15 12 10 10 12 14 10 14 12 8 4 4 5 7 8 9 9 8 6 5 5 3 5 4 5 4 2 5
Wind_Direction
291 211 190 199 209 197 94 3 146 222 241 291 194 225 218 217 213 206 204 209 208 204 200 197 195 194 187 188 193 191 193 196
303 265 230 205 167 189 206 204 236 281 224 224 175 199 211 220 220 212 204 200 207 210 203 195 194 193 190 192 192 191 193 194
334 225 216 205 201 202 150 175 220 271 251 200 204 188 190 207 222 210 201 201 199 206 202 201 189 190 192 193 193 191 192 193
252 287 303 287 195 164 201 215 278 186 250 253 214 200 176 203 217 213 204 200 199 197 194 194 190 190 191 191 191 192 190 192
306 358 20 356 325 211 221 95 198 220 257 220 236 230 233 189 212 218 209 202 203 193 189 192 194 188 190 189 192 191 190 192
261 315 314 290 310 307 298 194 191 220 254 247 281 282 277 247 257 228 205 201 195 190 192 189 191 192 187 190 191 191 189 192
254 271 274 273 274 281 283 251 202 224 232 244 253 295 294 272 237 222 204 192 187 188 188 189 187 187 187 192 188 185 186 191
287 267 250 248 260 253 248 255 204 221 243 179 75 54 3 342 288 209 189 188 188 188 186 183 184 186 185 187 187 183 188 194
265 334 316 197 336 310 110 35 324 207 283 241 48 44 10 355 335 245 193 184 189 184 184 185 185 183 186 187 178 185 188 194
278 314 194 139 33 5 70 44 19 357 299 104 109 99 39 12 356 8 3 212 186 184 184 187 183 186 168 172 179 181 187 191
261 300 114 356 360 339 335 40 18 14 15 342 82 54 27 1 358 359 2 31 70 129 149 151 170 170 165 173 176 177 187 194
308 253 126 294 324 315 202 42 358 359 23 13 19 65 323 337 343 360 23 23 39 71 119 137 151 154 160 168 175 191 196 196
238 268 217 320 317 309 68 309 339 353 359 15 39 17 310 335 355 7 27 26 29 48 66 51 161 167 175 177 194 205 190 181
269 221 168 330 333 80 190 327 355 356 0 349 9 13 14 2 4 4 20 21 22 48 52 38 60 102 97 96 38 167 170 184
291 300 13 341 99 79 39 14 360 351 348 356 350 360 7 345 2 357 13 18 16 30 46 50 53 68 85 43 58 83 178 196
305 25 331 312 89 48 360 339 333 341 335 340 344 337 3 359 357 354 1 17 8 30 33 34 30 62 82 71 69 75 73 95
270 317 323 48 352 335 334 334 335 329 337 331 333 337 335 0 355 345 344 5 7 24 19 20 16 28 52 56 46 39 35 31
304 297 279 282 292 316 323 319 325 318 320 326 324 322 327 353 337 342 350 2 12 10 5 352 355 355 13 64 63 45 24 1
318 314 285 264 290 291 284 281 290 301 292 295 303 300 323 311 326 327 355 8 2 344 337 339 325 18 6 52 82 67 359 294